Onweer radar Meer informatie blitzortung!


Regen radar Meer informatie rain snow radar


Bezoek onze andere website:

Template documentation
and downloads

And another site



15 daagse weersverwachting Tilburg (NL)

  • Overzicht
  • Per uur
  • 15 dagen
  • Extra
  • Vergelijk
  • Kaarten
  • Dagkaart
  • Meer »
  • Info
  • Statistieken
  • Directe link
    Temp 6h Neerslag Wind  
 06:06     21:27    Daglengte: 15:21 Vandaag
02:00
15°
 
3
08:00
14°
 
3
14:00
19°
0.4 mm
4
20:00
17°
10.6 mm
4
 06:07     21:25    Daglengte: 15:18 Morgen
02:00
14°
 
2
08:00
14°
 
1
14:00
19°
 
2
20:00
18°
 
3
 06:09     21:24    Daglengte: 15:15 Dinsdag 03 Aug
02:00
12°
 
2
08:00
13°
 
2
14:00
20°
 
2
20:00
20°
 
2
Locatie info
Region: Noord-Brabant
Latitude: 51.5554°N
Longitude: 5.1058°E
16 masl
Postcode: 5018
Temp/Neerslag /Baro Onweer/Dauwpunt
    Temp Baro 1h Neerslag Dauwpunt Wind UV Bewolking  
 06:06     21:27    Daglengte: 15:21 Vandaag
01:00
15°
1009.7 hPa   13.5°
2
Windvlaag: 3.1 m/s
12%
02:00
15°
1009.4 hPa   13.4°
3
Windvlaag: 4.2 m/s
32%
03:00
14°
1009.2 hPa   13.2°
3
Windvlaag: 4.4 m/s
11%
04:00
14°
1008.9 hPa   13.1°
3
Windvlaag: 4.5 m/s
12%
05:00
13°
1008.6 hPa   12.9°
3
Windvlaag: 4 m/s
46%
06:00
13°
1008.8 hPa   12.6°
3
Windvlaag: 4.8 m/s
57%
07:00
14°
1008.8 hPa   13.0°
3
Windvlaag: 4.9 m/s
50%
08:00
14°
1008.9 hPa   13.3°
3
Windvlaag: 5.2 m/s
65%
09:00
15°
1009.0 hPa   13.8°
4
Windvlaag: 4.8 m/s
72%
10:00
16°
1009.2 hPa
19%
14.0°
3
Windvlaag: 4.8 m/s
60%
11:00
17°
1009.4 hPa
46%
14.2°
3
Windvlaag: 4.5 m/s
75%
12:00
17°
1009.5 hPa
50%
14.3°
4
Windvlaag: 4.1 m/s
59%
13:00
19°
1009.4 hPa
51%
14.2°
4
Windvlaag: 4 m/s
57%
14:00
19°
1009.3 hPa 0.4 mm
82%
15.8°
4
Windvlaag: 3.4 m/s
63%
15:00
19°
1009.5 hPa 2.2 mm
82%
16.3°
4
Windvlaag: 3.5 m/s
56%
16:00
19°
1009.6 hPa 2.8 mm
82%
14.5°
4
Windvlaag: 1.1 m/s
61%
17:00
18°
1009.5 hPa 2.9 mm
82%
12.1°
4
Windvlaag: 0.7 m/s
36%
18:00
18°
1009.7 hPa 2.7 mm
82%
11.6°
5
Windvlaag: -0.6 m/s
48%
19:00
18°
1009.8 hPa
41%
11.7°
4
Windvlaag: -0.7 m/s
34%
20:00
17°
1010.1 hPa
72%
11.7°
4
Windvlaag: -3.2 m/s
36%
21:00
16°
1010.3 hPa
23%
12.0°
3
Windvlaag: -3 m/s
34%
22:00
16°
1011.0 hPa
16%
11.9°
2
Windvlaag: -0.2 m/s
51%
23:00
15°
1011.4 hPa
14%
11.7°
2
Windvlaag: -0 m/s
58%
 06:07     21:25    Daglengte: 15:18 Morgen
00:00
15°
1011.6 hPa
14%
11.9°
2
Windvlaag: 0.1 m/s
56%
01:00
14°
1011.7 hPa
18%
12.1°
2
Windvlaag: 0.9 m/s
59%
02:00
14°
1011.7 hPa
25%
12.1°
2
Windvlaag: 0.8 m/s
73%
03:00
14°
1011.6 hPa
71%
12.7°
2
Windvlaag: 0.1 m/s
58%
04:00
13°
1011.7 hPa
72%
12.6°
2
Windvlaag: -0.2 m/s
61%
05:00
13°
1011.7 hPa
66%
12.4°
1
Windvlaag: -0.2 m/s
56%
06:00
13°
1012.0 hPa
29%
12.4°
1
Windvlaag: 0.2 m/s
57%
07:00
13°
1012.4 hPa
39%
12.3°
1
Windvlaag: 0.7 m/s
48%
08:00
14°
1012.7 hPa
71%
12.9°
1
Windvlaag: 0.8 m/s
33%
09:00
15°
1013.0 hPa
68%
12.8°
1
Windvlaag: 1.1 m/s
19%
10:00
16°
1013.3 hPa
67%
11.5°
1
Windvlaag: 0.8 m/s
20%
11:00
17°
1013.6 hPa
29%
10.9°
1
Windvlaag: 1.7 m/s
37%
12:00
18°
1013.9 hPa
29%
10.7°
2
Windvlaag: 1.2 m/s
37%
13:00
18°
1013.8 hPa
27%
10.6°
2
Windvlaag: 1.1 m/s
24%
14:00
19°
1013.7 hPa
66%
10.4°
2
Windvlaag: 2 m/s
23%
15:00
19°
1013.5 hPa
76%
10.3°
2
Windvlaag: 0.9 m/s
22%
16:00
19°
1013.6 hPa
74%
10.3°
3
Windvlaag: -1.9 m/s
37%
17:00
19°
1013.1 hPa
74%
11.7°
3
Windvlaag: -4 m/s
45%
18:00
19°
1012.9 hPa
27%
11.0°
3
Windvlaag: -3.7 m/s
59%
19:00
19°
1012.8 hPa
68%
9.6°
3
Windvlaag: -3.6 m/s
72%
20:00
18°
1012.9 hPa
22%
9.1°
3
Windvlaag: -3.6 m/s
70%
21:00
17°
1013.2 hPa
21%
9.9°
2
Windvlaag: -3.1 m/s
55%
22:00
15°
1013.7 hPa
21%
9.2°
2
Windvlaag: -2.8 m/s
29%
23:00
14°
1014.0 hPa
21%
9.9°
2
Windvlaag: -1.9 m/s
41%
 06:09     21:24    Daglengte: 15:15 Dinsdag 03 Aug
00:00
13°
1014.1 hPa
21%
10.1°
2
Windvlaag: -1.6 m/s
26%
01:00
12°
1014.2 hPa
21%
9.8°
2
Windvlaag: -1.4 m/s
60%
02:00
12°
1014.1 hPa
21%
9.7°
2
Windvlaag: -1.7 m/s
58%
03:00
12°
1013.8 hPa
21%
9.8°
2
Windvlaag: -1.9 m/s
70%
04:00
12°
1013.7 hPa
21%
10.0°
2
Windvlaag: -1.9 m/s
87%
05:00
12°
1013.5 hPa
21%
10.4°
2
Windvlaag: -1.7 m/s
75%
06:00
12°
1013.5 hPa
21%
10.2°
1
Windvlaag: -1.6 m/s
69%
07:00
11°
1013.7 hPa
21%
9.8°
1
Windvlaag: -1.6 m/s
62%
08:00
13°
1013.9 hPa
21%
10.2°
2
Windvlaag: -1.5 m/s
53%
09:00
15°
1014.3 hPa
21%
10.8°
2
Windvlaag: -2 m/s
56%
10:00
16°
1014.2 hPa
21%
11.1°
2
Windvlaag: -3.3 m/s
49%
11:00
17°
1014.0 hPa
21%
10.6°
2
Windvlaag: -3.6 m/s
41%
12:00
19°
1013.9 hPa
21%
10.0°
2
Windvlaag: -3.5 m/s
35%
13:00
20°
1013.7 hPa
21%
9.2°
2
Windvlaag: -3.5 m/s
27%
14:00
20°
1013.3 hPa
21%
9.0°
2
Windvlaag: -4 m/s
19%
15:00
21°
1012.8 hPa
21%
9.4°
2
Windvlaag: 2.7 m/s
34%
16:00
22°
1012.6 hPa
21%
9.4°
2
Windvlaag: 3.1 m/s
14%
17:00
22°
1012.4 hPa
21%
9.5°
2
Windvlaag: 3.8 m/s
17%
18:00
22°
1012.0 hPa
21%
9.8°
2
Windvlaag: 4 m/s
18%
19:00
21°
1012.0 hPa
21%
10.1°
2
Windvlaag: 3.5 m/s
17%
20:00
20°
1012.3 hPa
21%
9.9°
2
Windvlaag: 4.1 m/s
19%
21:00
19°
1011.8 hPa 13.3 mm
100%
9.9°
4
Windvlaag: 4.3 m/s
87%
22:00
16°
1012.3 hPa 13.3 mm
100%
9.9°
3
Windvlaag: 6.5 m/s
72%
23:00
16°
1012.4 hPa 13.3 mm
100%
9.7°
4
Windvlaag: 7.6 m/s
43%
 06:10     21:22    Daglengte: 15:12 Woensdag 04 Aug
00:00
14°
1012.8 hPa 13.3 mm
100%
10.1°
3
Windvlaag: 7.8 m/s
53%
Temp/Neerslag /Baro Onweer/Dauwpunt
    Temp Baro Neerslag Dauwpunt Wind Bewolking  
 06:06     21:27    Daglengte: 15:21 Vandaag
02:00
15°
1009.4 hPa   13.4°
3
32%
05:00
13°
1008.6 hPa   12.9°
3
46%
08:00
14°
1008.9 hPa   13.3°
3
65%
11:00
17°
1009.4 hPa   14.2°
3
75%
14:00
19°
1009.3 hPa 0.4 mm 15.8°
4
63%
17:00
18°
1009.5 hPa 8.0 mm 12.1°
4
36%
20:00
17°
1010.1 hPa 2.7 mm 11.7°
4
36%
23:00
15°
1011.4 hPa   11.7°
2
58%
 06:07     21:25    Daglengte: 15:18 Morgen
02:00
14°
1011.7 hPa   12.1°
2
73%
05:00
13°
1011.7 hPa   12.4°
1
56%
08:00
14°
1012.7 hPa   12.9°
1
33%
11:00
17°
1013.6 hPa   10.9°
1
37%
14:00
19°
1013.7 hPa   10.4°
2
23%
17:00
19°
1013.1 hPa   11.7°
3
45%
20:00
18°
1012.9 hPa   9.1°
3
70%
23:00
14°
1014.0 hPa   9.9°
2
41%
 06:09     21:24    Daglengte: 15:15 Dinsdag 03 Aug
02:00
12°
1014.1 hPa   9.7°
2
58%
05:00
12°
1013.5 hPa   10.4°
2
75%
08:00
13°
1013.9 hPa   10.2°
2
53%
11:00
17°
1014.0 hPa   10.6°
2
41%
14:00
20°
1013.3 hPa   9.0°
2
19%
17:00
22°
1012.4 hPa   9.5°
2
17%
20:00
20°
1012.3 hPa   9.9°
2
19%
23:00
16°
1012.4 hPa 39.9 mm 9.7°
4
43%
 06:10     21:22    Daglengte: 15:12 Woensdag 04 Aug
02:00
14°
1013.0 hPa 39.9 mm 10.9°
3
63%
05:00
14°
1012.2 hPa 13.7 mm 12.2°
2
1%
08:00
14°
1012.8 hPa 14.4 mm 12.8°
1
1%
11:00
13°
1013.5 hPa 16.8 mm 12.9°
2
1%
14:00
14°
1013.9 hPa 17.7 mm 13.4°
3
1%
17:00
16°
1014.5 hPa 18.0 mm 13.0°
3
1%
20:00
14°
1014.6 hPa 18.0 mm 12.9°
2
1%
23:00
13°
1015.1 hPa 18.0 mm 12.0°
1
1%
 06:12     21:20    Daglengte: 15:08 Donderdag 05 Aug
02:00
13°
1014.5 hPa 18.0 mm 11.8°
1
1%
05:00
12°
1013.1 hPa 18.0 mm 11.2°
1
1%
08:00
13°
1012.3 hPa 18.0 mm 12.1°
2
1%
11:00
17°
1011.1 hPa 18.0 mm 12.6°
4
1%
14:00
18°
1009.4 hPa 18.2 mm 11.5°
5
1%
17:00
18°
1007.6 hPa 18.4 mm 13.7°
6
1%
20:00
14°
1006.2 hPa 18.8 mm 12.4°
5
1%
23:00
14°
1004.4 hPa 19.5 mm 12.7°
5
1%
 06:13     21:18    Daglengte: 15:05 Vrijdag 06 Aug
02:00
14°
1003.5 hPa 19.8 mm 13.6°
4
1%
05:00
14°
1001.9 hPa 20.6 mm 13.8°
5
1%
08:00
14°
1001.2 hPa 21.4 mm 13.8°
6
1%
11:00
15°
1000.6 hPa 25.6 mm 14.1°
7
1%
14:00
16°
1001.0 hPa 28.1 mm 15.1°
7
1%
17:00
18°
1001.5 hPa 29.4 mm 15.2°
6
1%
20:00
17°
1003.0 hPa 30.5 mm 15.1°
6
1%
23:00
15°
1005.3 hPa 31.1 mm 14.2°
7
0%
 06:15     21:17    Daglengte: 15:02 Zaterdag 07 Aug
02:00
14°
1006.4 hPa 31.1 mm 13.3°
6
0%
05:00
13°
1007.4 hPa 31.1 mm 12.9°
5
1%
08:00
14°
1008.2 hPa 31.1 mm 12.6°
6
1%
11:00
17°
1009.0 hPa 31.2 mm 13.1°
6
1%
14:00
21°
1008.7 hPa 31.2 mm 11.3°
6
1%
17:00
21°
1008.6 hPa 31.2 mm 11.4°
4
1%
20:00
19°
1008.7 hPa 31.3 mm 13.8°
3
1%
23:00
17°
1008.9 hPa   13.2°
3
1%
 06:16     21:15    Daglengte: 14:59 Zondag 08 Aug
02:00
16°
1008.3 hPa 63.0 mm 12.6°
3
1%
08:00
16°
1006.9 hPa 72.5 mm 15.6°
4
1%
14:00
21°
1009.1 hPa 85.7 mm 13.7°
8
1%
20:00
16°
1009.7 hPa 89.9 mm 14.8°
9
0%
 06:18     21:13    Daglengte: 14:55 Maandag 09 Aug
02:00
15°
1013.2 hPa 93.4 mm 11.8°
9
1%
08:00
16°
1015.9 hPa 93.9 mm 13.1°
7
1%
14:00
19°
1018.9 hPa 97.0 mm 14.2°
8
1%
20:00
17°
1021.3 hPa 99.8 mm 12.4°
5
1%
 06:20     21:11    Daglengte: 14:51 Dinsdag 10 Aug
02:00
14°
1022.7 hPa 99.9 mm 11.8°
4
1%
08:00
15°
1022.9 hPa 99.9 mm 13.4°
4
1%
14:00
19°
1023.4 hPa 101.5 mm 15.7°
5
1%
20:00
20°
1019.8 hPa 0.6 mm 13.1°
3
38%
 06:21     21:09    Daglengte: 14:48 Woensdag 11 Aug
02:00
14°
1020.8 hPa 0.1 mm 11.7°
2
37%
08:00
15°
1020.7 hPa   12.3°
2
41%
14:00
22°
1020.4 hPa 0.5 mm 12.0°
2
49%
20:00
20°
1020.1 hPa 0.8 mm 12.7°
2
49%
 06:23     21:07    Daglengte: 14:44 Donderdag 12 Aug
02:00
15°
1020.7 hPa   11.5°
0
34%
08:00
15°
1020.4 hPa   12.0°
0
55%
14:00
23°
1019.9 hPa 0.3 mm 12.9°
1
55%
20:00
21°
1019.5 hPa 0.4 mm 13.5°
2
55%
 06:24     21:05    Daglengte: 14:41 Vrijdag 13 Aug
02:00
16°
1020.0 hPa 0.1 mm 12.6°
1
46%
08:00
16°
1019.9 hPa   13.1°
1
58%
14:00
23°
1019.6 hPa 0.5 mm 13.2°
2
56%
20:00
21°
1019.1 hPa 0.1 mm 13.2°
1
47%
 06:26     21:03    Daglengte: 14:37 Zaterdag 14 Aug
02:00
16°
1019.5 hPa 0.2 mm 12.3°
1
51%
08:00
16°
1019.2 hPa 0.2 mm 12.9°
1
55%
14:00
23°
1018.9 hPa 0.8 mm 13.3°
2
63%
20:00
21°
1018.3 hPa 0.4 mm 13.8°
2
48%
 06:27     21:01    Daglengte: 14:34 Zondag 15 Aug
02:00
16°
1018.6 hPa 0.2 mm 12.4°
1
41%
08:00
16°
1018.1 hPa 0.3 mm 13.0°
2
51%
14:00
22°
1017.9 hPa 0.6 mm 13.9°
3
51%
20:00
20°
1017.6 hPa 0.2 mm 13.8°
2
50%
  CAPE Lifted Index Hail Supercell Tornado SRH 3km CL BTM PRES CL TOP PRES Swiss DWD icon SMHI TS
 06:06     21:27    Daglengte: 15:21 Vandaag
01:00 112 J/kg -0.2 K 0 % 0 % 0 % 0 m²/s² 0 0 0.82 2
02:00 49 J/kg -0.1 K 0 % 0 % 0 % 0 m²/s² 0 0 0.86 2
03:00 0 J/kg 0.0 K 0 % 0 % 0 % 0 m²/s² 0 0 0.78 2
04:00 0 J/kg 0.3 K 0 % 0 % 0 % 0 m²/s² 0 0 1.02 2
05:00 0 J/kg 0.5 K 0 % 0 % 0 % 0 m²/s² 0 0 1.46 3
06:00 0 J/kg 0.3 K 0 % 0 % 0 % 0 m²/s² 0 0 1.26 3
07:00 0 J/kg -0.2 K 0 % 0 % 0 % 0 m²/s² 0 0 1 3
08:00 0 J/kg -0.2 K 0 % 0 % 0 % 0 m²/s² 0 0 1.18 3
09:00 16 J/kg 0.0 K 0 % 0 % 0 % 0 m²/s² 0 0 1.26 3
10:00 225 J/kg -0.6 K 0 % 0 % 0 % 0 m²/s² 0 0 0.6 3
11:00 288 J/kg -0.9 K 0 % 0 % 0 % 0 m²/s² 0 0 0.15 3
12:00 450 J/kg -1.5 K 0 % 0 % 0 % 0 m²/s² 0 0 -0.6 3
13:00 584 J/kg -2.4 K 0 % 0 % 0 % 0 m²/s² 0 0 -1.29 3
14:00 597 J/kg -2.4 K 0 % 0 % 0 % 0 m²/s² 0 0 -1.59 3
15:00 113 J/kg 0.1 K 0 % 0 % 0 % 0 m²/s² 0 0 0.43 3
16:00 44 J/kg 0.0 K 0 % 0 % 0 % 0 m²/s² 0 0 0.21 80
17:00 453 J/kg -2.0 K 0 % 0 % 0 % 0 m²/s² 0 0 -1.4 80
18:00 582 J/kg -2.4 K 0 % 0 % 0 % 0 m²/s² 0 0 -1.08 80
19:00 391 J/kg -1.5 K 0 % 0 % 0 % 0 m²/s² 0 0 0.33 3
20:00 319 J/kg -1.0 K 0 % 0 % 0 % 0 m²/s² 0 0 0.89 3
21:00 195 J/kg -0.3 K 0 % 0 % 0 % 0 m²/s² 0 0 1.2 3
22:00 42 J/kg 1.3 K 0 % 0 % 0 % 0 m²/s² 0 0 2.26 3
23:00 1 J/kg 2.1 K 0 % 0 % 0 % 0 m²/s² 0 0 3.12 3
 06:07     21:25    Daglengte: 15:18 Morgen
00:00 0 J/kg 2.4 K 0 % 0 % 0 % 0 m²/s² 0 0 3.93 3
01:00 0 J/kg 2.9 K 0 % 0 % 0 % 0 m²/s² 0 0 4.34 3
02:00 0 J/kg 3.2 K 0 % 0 % 0 % 0 m²/s² 0 0 5.3 3
03:00 0 J/kg 3.6 K 0 % 0 % 0 % 0 m²/s² 0 0 7.35 3
04:00 0 J/kg 4.2 K 0 % 0 % 0 % 0 m²/s² 0 0 6.78 3
05:00 0 J/kg 4.5 K 0 % 0 % 0 % 0 m²/s² 0 0 6.66 3
06:00 0 J/kg 4.6 K 0 % 0 % 0 % 0 m²/s² 0 0 5.86 3
07:00 0 J/kg 4.7 K 0 % 0 % 0 % 0 m²/s² 0 0 5.15 45
08:00 0 J/kg 4.5 K 0 % 0 % 0 % 0 m²/s² 0 0 4.74 45
09:00 0 J/kg 4.2 K 0 % 0 % 0 % 0 m²/s² 0 0 4.44 80
10:00 0 J/kg 4.2 K 0 % 0 % 0 % 0 m²/s² 0 0 4.62 2
11:00 0 J/kg 4.2 K 0 % 0 % 0 % 0 m²/s² 0 0 4.83 3
12:00 5 J/kg 3.8 K 0 % 0 % 0 % 0 m²/s² 0 0 4.04 3
13:00 8 J/kg 3.4 K 0 % 0 % 0 % 0 m²/s² 0 0 4 3
14:00 47 J/kg 2.7 K 0 % 0 % 0 % 0 m²/s² 0 0 4.86 3
15:00 85 J/kg 2.1 K 0 % 0 % 0 % 0 m²/s² 0 0 4.98 80
16:00 101 J/kg 1.6 K 0 % 0 % 0 % 0 m²/s² 0 0 5.08 3
17:00 145 J/kg 1.0 K 0 % 0 % 0 % 0 m²/s² 0 0 4.57 3
18:00 129 J/kg 1.2 K 0 % 0 % 0 % 0 m²/s² 0 0 4.95 3
19:00 65 J/kg 1.9 K 0 % 0 % 0 % 0 m²/s² 0 0 5.65 3
20:00 2 J/kg 3.1 K 0 % 0 % 0 % 0 m²/s² 0 0 7.27 3
21:00 0 J/kg 4.0 K 0 % 0 % 0 % 0 m²/s² 0 0 8.41 2
22:00 0 J/kg 4.7 K 0 % 0 % 0 % 0 m²/s² 0 0 9.11 3
23:00 0 J/kg 5.5 K 0 % 0 % 0 % 0 m²/s² 0 0 9.58 3
 06:09     21:24    Daglengte: 15:15 Dinsdag 03 Aug
00:00 0 J/kg 5.9 K 0 % 0 % 0 % 0 m²/s² 0 0 10.52 2
01:00 0 J/kg 5.9 K 0 % 0 % 0 % 0 m²/s² 0 0 10.52 3
02:00 0 J/kg 5.7 K 0 % 0 % 0 % 0 m²/s² 0 0 10.44 3
03:00 0 J/kg 4.9 K 0 % 0 % 0 % 0 m²/s² 0 0 9.07 2
04:00 0 J/kg 4.8 K 0 % 0 % 0 % 0 m²/s² 0 0 8.67 2
05:00 0 J/kg 4.5 K 0 % 0 % 0 % 0 m²/s² 0 0 8.46 3
06:00 0 J/kg 4.4 K 0 % 0 % 0 % 0 m²/s² 0 0 8.48 3
07:00 0 J/kg 4.5 K 0 % 0 % 0 % 0 m²/s² 0 0 8.79 2
08:00 0 J/kg 5.0 K 0 % 0 % 0 % 0 m²/s² 0 0 9.62 2
09:00 0 J/kg 4.8 K 0 % 0 % 0 % 0 m²/s² 0 0 9.18 3
10:00 0 J/kg 4.5 K 0 % 0 % 0 % 0 m²/s² 0 0 7.98 2
11:00 0 J/kg 4.7 K 0 % 0 % 0 % 0 m²/s² 0 0 7.43 2
12:00 0 J/kg 4.6 K 0 % 0 % 0 % 0 m²/s² 0 0 6.7 3
13:00 0 J/kg 4.6 K 0 % 0 % 0 % 0 m²/s² 0 0 6.43 3
14:00 2 J/kg 4.1 K 0 % 0 % 0 % 0 m²/s² 0 0 5.99 2
15:00 3 J/kg 3.5 K 0 % 0 % 0 % 0 m²/s² 0 0 5.54 3
16:00 7 J/kg 3.1 K 0 % 0 % 0 % 0 m²/s² 0 0 5.14 2
17:00 23 J/kg 2.8 K 0 % 0 % 0 % 0 m²/s² 0 0 4.9 2
18:00 33 J/kg 2.8 K 0 % 0 % 0 % 0 m²/s² 0 0 4.84 1
19:00 34 J/kg 3.0 K 0 % 0 % 0 % 0 m²/s² 0 0 5.31 0
20:00 46 J/kg 2.8 K 0 % 0 % 0 % 0 m²/s² 0 0 5.62 0
21:00 14 J/kg 3.6 K 0 % 0 % 0 % 0 m²/s² 0 0 6.93
22:00 0 J/kg 4.4 K 0 % 0 % 0 % 0 m²/s² 0 0 8
23:00 0 J/kg 4.3 K 0 % 0 % 0 % 0 m²/s² 0 0 8.08
 06:10     21:22    Daglengte: 15:12 Woensdag 04 Aug
00:00 0 J/kg 4.5 K 0 % 0 % 0 % 0 m²/s² 0 0 8.37
Temp Baro Wind Neerslag
  EWN Forecast EWN WRFDA DWD ICON FMI HIRLAM MET Norway GFS
 06:06     21:27    Daglengte: 15:21 Vandaag
02:00 14.6° 1009.4 hPa 2.9 m/s 0.0 mm 13.6° 1008.8 hPa 3.1 m/s 0.0 mm 14.5° 1009.8 hPa 2.3 m/s -1.5 mm 15.0° 1008.9 hPa 3.1 m/s 0.0 mm 13.1° 1009.5 hPa 3.1 m/s
05:00 13.4° 1008.6 hPa 3.0 m/s 0.0 mm 11.6° 1007.7 hPa 3.0 m/s 0.0 mm 13.6° 1009.1 hPa 2.9 m/s 0.0 mm 13.2° 1007.9 hPa 2.7 m/s 0.0 mm 12.0° 1008.8 hPa 3.2 m/s
08:00 14.2° 1008.9 hPa 3.5 m/s 0.0 mm 14.0° 1007.4 hPa 3.2 m/s 0.0 mm 14.2° 1009.2 hPa 3.3 m/s 0.0 mm 14.3° 1008.0 hPa 3.5 m/s 0.0 mm 13.5° 1009.2 hPa 4.3 m/s
11:00 16.6° 1009.4 hPa 3.5 m/s 0.0 mm 18.2° 1007.9 hPa 4.8 m/s 0.0 mm 17.2° 1009.6 hPa 3.7 m/s 0.1 mm 16.6° 1008.4 hPa 2.8 m/s 0.0 mm 19.1° 1009.3 hPa 5.2 m/s
14:00 19.0° 1009.3 hPa 3.9 m/s 0.4 mm 20.4° 1007.4 hPa 3.8 m/s 0.4 mm 19.0° 1009.8 hPa 3.9 m/s 0.4 mm 19.1° 1008.5 hPa 3.6 m/s 0.0 mm 20.4° 1009.1 hPa 4.8 m/s
17:00 18.3° 1009.5 hPa 3.8 m/s 8.0 mm 18.6° 1007.9 hPa 1.9 m/s 31.7 mm 18.0° 1010.0 hPa 4.0 m/s 2.3 mm 19.9° 1008.4 hPa 4.6 m/s 0.0 mm 19.8° 1009.8 hPa 4.5 m/s
20:00 17.2° 1010.1 hPa 3.5 m/s 2.7 mm 19.1° 1008.3 hPa 4.3 m/s 35.1 mm 17.0° 1010.3 hPa 2.8 m/s 0.6 mm 18.0° 1009.3 hPa 3.5 m/s 0.0 mm 17.3° 1010.5 hPa 3.5 m/s
23:00 15.1° 1011.4 hPa 2.2 m/s 0.0 mm 15.6° 1009.9 hPa 2.5 m/s 35.6 mm 14.9° 1011.4 hPa 1.6 m/s 0.0 mm 16.1° 1011.2 hPa 2.8 m/s 0.0 mm 13.1° 1012.3 hPa 2.4 m/s
 06:07     21:25    Daglengte: 15:18 Morgen
02:00 14.2° 1011.7 hPa 1.8 m/s 0.0 mm 12.3° 1010.3 hPa 2.2 m/s 35.6 mm 14.5° 1011.8 hPa 1.4 m/s 0.0 mm 15.1° 1011.3 hPa 1.7 m/s 0.0 mm 12.2° 1013.0 hPa 1.8 m/s
05:00 13.0° 1011.7 hPa 1.3 m/s 0.0 mm 11.1° 1010.6 hPa 1.1 m/s 35.6 mm 14.3° 1011.6 hPa 1.3 m/s 0.2 mm 13.0° 1011.6 hPa 1.5 m/s 0.0 mm 11.2° 1013.5 hPa 1.5 m/s
08:00 13.9° 1012.7 hPa 1.1 m/s 0.0 mm 12.9° 1011.7 hPa 0.5 m/s 35.9 mm 14.9° 1012.6 hPa 1.1 m/s 0.1 mm 14.0° 1012.6 hPa 1.4 m/s 0.0 mm 13.4° 1014.4 hPa 1.1 m/s
11:00 16.9° 1013.6 hPa 1.5 m/s 0.0 mm 13.9° 1012.1 hPa 1.4 m/s 38.6 mm 17.4° 1013.1 hPa 1.2 m/s 0.2 mm 17.4° 1013.8 hPa 3.2 m/s 0.0 mm 16.7° 1014.7 hPa 2.0 m/s
14:00 18.9° 1013.7 hPa 1.9 m/s 0.0 mm 18.3° 1012.1 hPa 1.4 m/s 39.7 mm 18.2° 1013.2 hPa 1.7 m/s 0.0 mm 19.0° 1014.4 hPa 3.7 m/s 0.0 mm 15.7° 1014.4 hPa 2.6 m/s
17:00 19.1° 1013.1 hPa 2.8 m/s 0.0 mm 19.9° 1011.6 hPa 2.8 m/s 39.8 mm 18.4° 1013.4 hPa 2.1 m/s 0.2 mm 19.2° 1013.8 hPa 1.9 m/s
20:00 18.2° 1012.9 hPa 2.7 m/s 0.0 mm 19.2° 1011.6 hPa 4.3 m/s 39.9 mm 18.1° 1012.9 hPa 0.7 m/s 0.0 mm 18.5° 1013.4 hPa 0.7 m/s
23:00 14.0° 1014.0 hPa 2.1 m/s 0.0 mm 13.0° 1012.6 hPa 2.5 m/s 39.9 mm 14.5° 1014.0 hPa 1.8 m/s 0.0 mm 14.0° 1014.0 hPa 2.8 m/s
 06:09     21:24    Daglengte: 15:15 Dinsdag 03 Aug
02:00 12.2° 1014.1 hPa 1.9 m/s 0.0 mm 10.4° 1012.6 hPa 2.2 m/s 39.9 mm 12.8° 1014.1 hPa 1.5 m/s 0.0 mm 12.5° 1013.4 hPa 2.7 m/s
05:00 11.7° 1013.5 hPa 1.6 m/s 0.0 mm 10.3° 1012.0 hPa 1.9 m/s 39.9 mm 12.5° 1013.6 hPa 1.3 m/s 0.0 mm 12.4° 1012.5 hPa 1.5 m/s
08:00 12.9° 1013.9 hPa 1.6 m/s 0.0 mm 12.9° 1012.3 hPa 1.8 m/s 39.9 mm 13.6° 1014.1 hPa 1.3 m/s 0.0 mm 13.9° 1012.6 hPa 1.9 m/s
11:00 17.4° 1014.0 hPa 2.3 m/s 0.0 mm 17.0° 1012.2 hPa 2.4 m/s 39.9 mm 18.2° 1014.2 hPa 1.7 m/s 0.0 mm 14.7° 1012.5 hPa 1.7 m/s
14:00 20.4° 1013.3 hPa 1.8 m/s 0.0 mm 20.2° 1011.1 hPa 2.0 m/s 39.9 mm 20.6° 1013.6 hPa 1.2 m/s 0.0 mm 15.3° 1012.3 hPa 2.5 m/s
17:00 21.7° 1012.4 hPa 2.4 m/s 0.0 mm 21.6° 1010.9 hPa 3.8 m/s 39.9 mm 21.7° 1012.8 hPa 2.0 m/s 0.0 mm 16.6° 1012.5 hPa 2.6 m/s
20:00 20.4° 1012.3 hPa 1.9 m/s 0.0 mm 20.5° 1011.2 hPa 4.0 m/s 39.9 mm 20.3° 1012.6 hPa 1.4 m/s 0.0 mm 16.5° 1012.8 hPa 2.3 m/s
23:00 15.5° 1012.4 hPa 3.7 m/s 39.9 mm 15.5° 1012.4 hPa 3.7 m/s 39.9 mm 13.4° 1013.6 hPa 2.0 m/s
 06:10     21:22    Daglengte: 15:12 Woensdag 04 Aug
02:00 13.5° 1013.0 hPa 2.9 m/s 39.9 mm 13.5° 1013.0 hPa 2.9 m/s 39.9 mm 14.0° 1013.3 hPa 1.7 m/s
05:00 13.7° 1012.2 hPa 1.5 m/s 13.7 mm 13.7° 1012.2 hPa 1.5 m/s 13.7 mm
08:00 13.7° 1012.8 hPa 1.4 m/s 14.4 mm 13.7° 1012.8 hPa 1.4 m/s 14.4 mm
11:00 13.3° 1013.5 hPa 2.1 m/s 16.8 mm 13.3° 1013.5 hPa 2.1 m/s 16.8 mm
14:00 14.0° 1013.9 hPa 3.1 m/s 17.7 mm 14.0° 1013.9 hPa 3.1 m/s 17.7 mm
17:00 15.9° 1014.5 hPa 2.8 m/s 18.0 mm 15.9° 1014.5 hPa 2.8 m/s 18.0 mm
20:00 14.4° 1014.6 hPa 2.0 m/s 18.0 mm 14.4° 1014.6 hPa 2.0 m/s 18.0 mm
23:00 13.5° 1015.1 hPa 1.0 m/s 18.0 mm 13.5° 1015.1 hPa 1.0 m/s 18.0 mm
 06:12     21:20    Daglengte: 15:08 Donderdag 05 Aug
02:00 13.2° 1014.5 hPa 0.6 m/s 18.0 mm 13.2° 1014.5 hPa 0.6 m/s 18.0 mm
05:00 12.0° 1013.1 hPa 1.4 m/s 18.0 mm 12.0° 1013.1 hPa 1.4 m/s 18.0 mm
08:00 13.3° 1012.3 hPa 2.2 m/s 18.0 mm 13.3° 1012.3 hPa 2.2 m/s 18.0 mm
11:00 17.2° 1011.1 hPa 3.6 m/s 18.0 mm 17.2° 1011.1 hPa 3.6 m/s 18.0 mm
14:00 18.4° 1009.4 hPa 4.7 m/s 18.2 mm 18.4° 1009.4 hPa 4.7 m/s 18.2 mm
17:00 17.9° 1007.6 hPa 5.6 m/s 18.4 mm 17.9° 1007.6 hPa 5.6 m/s 18.4 mm
20:00 14.4° 1006.2 hPa 5.2 m/s 18.8 mm 14.4° 1006.2 hPa 5.2 m/s 18.8 mm
23:00 13.5° 1004.4 hPa 5.4 m/s 19.5 mm 13.5° 1004.4 hPa 5.4 m/s 19.5 mm
 06:13     21:18    Daglengte: 15:05 Vrijdag 06 Aug
02:00 14.2° 1003.5 hPa 4.4 m/s 19.8 mm 14.2° 1003.5 hPa 4.4 m/s 19.8 mm
05:00 14.3° 1001.9 hPa 4.7 m/s 20.6 mm 14.3° 1001.9 hPa 4.7 m/s 20.6 mm
08:00 14.4° 1001.2 hPa 5.7 m/s 21.4 mm 14.4° 1001.2 hPa 5.7 m/s 21.4 mm
11:00 14.8° 1000.6 hPa 7.0 m/s 25.6 mm 14.8° 1000.6 hPa 7.0 m/s 25.6 mm
14:00 16.4° 1001.0 hPa 7.3 m/s 28.1 mm 16.4° 1001.0 hPa 7.3 m/s 28.1 mm
17:00 18.2° 1001.5 hPa 6.2 m/s 29.4 mm 18.2° 1001.5 hPa 6.2 m/s 29.4 mm
20:00 17.3° 1003.0 hPa 6.1 m/s 30.5 mm 17.3° 1003.0 hPa 6.1 m/s 30.5 mm
23:00 15.2° 1005.3 hPa 6.7 m/s 31.1 mm 15.2° 1005.3 hPa 6.7 m/s 31.1 mm
 06:15     21:17    Daglengte: 15:02 Zaterdag 07 Aug
02:00 14.0° 1006.4 hPa 6.3 m/s 31.1 mm 14.0° 1006.4 hPa 6.3 m/s 31.1 mm
05:00 13.3° 1007.4 hPa 5.4 m/s 31.1 mm 13.3° 1007.4 hPa 5.4 m/s 31.1 mm
08:00 14.3° 1008.2 hPa 5.9 m/s 31.1 mm 14.3° 1008.2 hPa 5.9 m/s 31.1 mm
11:00 17.1° 1009.0 hPa 5.8 m/s 31.2 mm 17.1° 1009.0 hPa 5.8 m/s 31.2 mm
14:00 20.9° 1008.7 hPa 5.7 m/s 31.2 mm 20.9° 1008.7 hPa 5.7 m/s 31.2 mm
17:00 21.3° 1008.6 hPa 4.5 m/s 31.2 mm 21.3° 1008.6 hPa 4.5 m/s 31.2 mm
20:00 18.9° 1008.7 hPa 3.3 m/s 31.3 mm 18.9° 1008.7 hPa 3.3 m/s 31.3 mm
23:00 17.4° 1008.9 hPa 2.5 m/s 31.5 mm 17.4° 1008.9 hPa 2.5 m/s 31.5 mm
 06:16     21:15    Daglengte: 14:59 Zondag 08 Aug
02:00 16.0° 1008.3 hPa 3.3 m/s 31.5 mm 16.0° 1008.3 hPa 3.3 m/s 31.5 mm
08:00 15.8° 1006.9 hPa 3.6 m/s 40.3 mm 15.8° 1006.9 hPa 3.6 m/s 40.3 mm
14:00 21.4° 1009.1 hPa 7.9 m/s 42.9 mm 21.4° 1009.1 hPa 7.9 m/s 42.9 mm
20:00 16.3° 1009.7 hPa 9.1 m/s 46.6 mm 16.3° 1009.7 hPa 9.1 m/s 46.6 mm
 06:18     21:13    Daglengte: 14:55 Maandag 09 Aug
02:00 15.2° 1013.2 hPa 8.6 m/s 46.7 mm 15.2° 1013.2 hPa 8.6 m/s 46.7 mm
08:00 15.6° 1015.9 hPa 6.7 m/s 47.1 mm 15.6° 1015.9 hPa 6.7 m/s 47.1 mm
14:00 18.6° 1018.9 hPa 8.2 m/s 49.3 mm 18.6° 1018.9 hPa 8.2 m/s 49.3 mm
20:00 17.0° 1021.3 hPa 5.3 m/s 49.9 mm 17.0° 1021.3 hPa 5.3 m/s 49.9 mm
 06:20     21:11    Daglengte: 14:51 Dinsdag 10 Aug
02:00 13.8° 1022.7 hPa 4.3 m/s 49.9 mm 13.8° 1022.7 hPa 4.3 m/s 49.9 mm
08:00 14.9° 1022.9 hPa 4.0 m/s 50.0 mm 14.9° 1022.9 hPa 4.0 m/s 50.0 mm
14:00 19.0° 1023.4 hPa 4.8 m/s 51.4 mm 19.0° 1023.4 hPa 4.8 m/s 51.4 mm
20:00 19.7° 1019.8 hPa 3.1 m/s 0.6 mm
 06:21     21:09    Daglengte: 14:48 Woensdag 11 Aug
02:00 14.5° 1020.8 hPa 1.6 m/s 0.1 mm
08:00 15.0° 1020.7 hPa 1.7 m/s 0.0 mm
14:00 21.7° 1020.4 hPa 2.1 m/s 0.5 mm
20:00 19.8° 1020.1 hPa 2.1 m/s 0.8 mm
 06:23     21:07    Daglengte: 14:44 Donderdag 12 Aug
02:00 14.9° 1020.7 hPa 0.3 m/s 0.0 mm
08:00 15.2° 1020.4 hPa 0.5 m/s 0.0 mm
14:00 22.6° 1019.9 hPa 0.8 m/s 0.3 mm
20:00 20.7° 1019.5 hPa 1.7 m/s 0.4 mm
 06:24     21:05    Daglengte: 14:41 Vrijdag 13 Aug
02:00 16.0° 1020.0 hPa 0.5 m/s 0.1 mm
08:00 16.3° 1019.9 hPa 1.0 m/s 0.0 mm
14:00 22.9° 1019.6 hPa 1.9 m/s 0.5 mm
20:00 20.9° 1019.1 hPa 1.4 m/s 0.1 mm
 06:26     21:03    Daglengte: 14:37 Zaterdag 14 Aug
02:00 16.3° 1019.5 hPa 0.7 m/s 0.2 mm
08:00 16.1° 1019.2 hPa 1.2 m/s 0.2 mm
14:00 22.7° 1018.9 hPa 1.6 m/s 0.8 mm
20:00 20.8° 1018.3 hPa 1.7 m/s 0.4 mm
 06:27     21:01    Daglengte: 14:34 Zondag 15 Aug
02:00 15.6° 1018.6 hPa 0.6 m/s 0.2 mm
08:00 15.9° 1018.1 hPa 1.6 m/s 0.3 mm
14:00 22.2° 1017.9 hPa 2.5 m/s 0.6 mm
20:00 20.0° 1017.6 hPa 2.4 m/s 0.2 mm
FMI Hirlam - 7.5 km EWN WRFDA - 12 km DWD ICON - 7 km GFS - 25 km Basiskaart






























































Updatetijd (Europe/Amsterdam) Resolutie Lengte Stap
FMI Hirlam 19:00, 01:00, 07:00, 13:00 7.5 km 49h 1h
EWN WRFDA 22:15, 04:15, 10:15, 16:15 12 km 73h 1h
DWD ICON 23:45, 05:45, 11:45, 17:45 7 km 75h 1h
GFS 20:15, 02:15, 08:15, 14:15 25 km 237h 3h
30+ mm
25-30 mm
20-25 mm
15-20 mm
10-15 mm
6-10 mm
4-6 mm
2-4 mm
1-2 mm
0.5-1 mm
0.2-0.5 mm
0.1-0.2 mm
30+ mm
25-30 mm
20-25 mm
15-20 mm
10-15 mm
6-10 mm
4-6 mm
2-4 mm
1-2 mm
0.5-1 mm
0.2-0.5 mm
0.1-0.2 mm
Sneeuwval
Natte sneeuw
Hagel
Vorst
30+ mm
25-30 mm
20-25 mm
15-20 mm
10-15 mm
6-10 mm
4-6 mm
2-4 mm
1-2 mm
0.5-1 mm
0.2-0.5 mm
0.1-0.2 mm
Sneeuwval
Natte sneeuw
Hagel
Vorst
Onweer
50 mm
40 mm
30 mm
26 mm
22 mm
18 mm
14 mm
10 mm
9 mm
8 mm
7 mm
6 mm
5 mm
4.5 mm
4 mm
3.5 mm
3 mm
2.5 mm
2 mm
1.5 mm
1 mm
0.8 mm
0.6 mm
0.4 mm
0.2 mm
0.05 mm
35°
30°
25°
20°
15°
10°
-5°
-10°
-15°
-20°
-25°
-30°
-35°
33> m/s
29 m/s
25 m/s
21 m/s
17 m/s
14 m/s
11 m/s
8 m/s
5 m/s
3 m/s
0 m/s
2600 J/kg
2400 J/kg
2200 J/kg
2000 J/kg
1800 J/kg
1600 J/kg
1400 J/kg
1200 J/kg
1000 J/kg
800 J/kg
600 J/kg
400 J/kg
200 J/kg
70 dBZ
65 dBZ
60 dBZ
55 dBZ
50 dBZ
45 dBZ
40 dBZ
35 dBZ
30 dBZ
25 dBZ
20 dBZ
15 dBZ
10 dBZ
5 dBZ
-1 K
-2 K
-3 K
-4 K
-5 K
-6 K
-7 K
-8 K
-9 K
950 m²/s²
900 m²/s²
850 m²/s²
800 m²/s²
750 m²/s²
700 m²/s²
650 m²/s²
600 m²/s²
550 m²/s²
500 m²/s²
450 m²/s²
400 m²/s²
350 m²/s²
300 m²/s²
250 m²/s²
200 m²/s²
150 m²/s²
100 m²/s²
46 m/s
44 m/s
42 m/s
40 m/s
38 m/s
36 m/s
34 m/s
32 m/s
30 m/s
28 m/s
26 m/s
24 m/s
22 m/s
20 m/s
16 m/s
12 m/s
8 m/s
4 m/s
30 m/s
28 m/s
26 m/s
24 m/s
22 m/s
20 m/s
18 m/s
16 m/s
14 m/s
12 m/s
10 m/s
8 m/s
6 m/s
4 m/s
2 m/s
3.0
2.8
2.6
2.4
2.2
2.0
1.8
1.6
1.4
1.2
1.0
0.8
0.6
0.4
0.2
15
14
13
12
11
10
9
8
7
6
5
4
3
2
1
90%
80%
70%
60%
50%
40%
30%
20%
10%
42
40
38
36
34
32
30
28
26
24
22
20
18
16
14